Temp
13 12 11 12 12 12 11 11 12 14 13 12 12 11 10 10 9 9 8 8 8 8 8 6 5 5 6 6 6 7 7 7 7 7 6 6 5 5 3 3 4 4 4
11 11 10 10 10 11 11 10 11 11 12 11 10 9 9 9 8 7 7 7 7 7 7 6 4 4 4 5 5 5 5 6 6 6 5 5 4 3 2 3 3 3 3
9 9 9 10 10 10 10 10 10 10 10 10 9 9 8 7 6 6 6 6 5 5 6 6 5 5 5 5 5 5 6 5 5 5 4 3 2 2 2 3 3 2 2
8 8 8 9 9 9 9 9 9 9 9 8 8 7 6 6 5 5 4 5 5 4 4 4 4 4 4 4 4 4 4 5 4 4 3 2 2 1 2 2 2 2 2
8 8 8 8 9 9 9 9 9 8 8 7 6 5 4 4 4 4 4 4 4 4 4 4 4 4 4 4 4 4 4 4 4 4 3 2 1 2 2 2 1 1 1
8 8 8 8 9 9 9 8 8 7 7 5 4 3 3 3 3 4 3 3 3 3 3 3 3 3 3 3 3 3 3 3 3 3 2 2 1 1 1 0 1 1 0
8 8 8 8 8 8 8 8 7 7 5 4 3 0 1 1 1 2 3 2 1 1 1 1 1 1 2 3 3 3 3 3 3 2 2 1 1 1 -0 0 0 0 -0
8 8 8 8 8 8 8 8 7 5 4 2 1 0 1 0 0 1 2 1 0 0 1 1 2 1 2 1 2 2 2 2 1 1 1 0 0 -0 -1 -0 -1 -1 -1
8 8 8 8 7 7 7 6 6 4 3 0 -0 0 0 0 0 0 1 1 1 0 1 1 1 1 2 1 1 1 1 0 -0 0 0 0 -0 -1 -1 -1 -1 -1 -2
8 7 7 6 6 6 6 5 4 3 1 -0 -0 0 -0 -0 -0 -0 -0 1 0 1 1 1 1 1 1 0 0 1 0 -0 -1 -0 -1 -1 -1 -1 -1 -1 -2 -2 -3
7 6 6 5 5 5 5 5 4 2 -0 -0 -0 -0 -1 -1 -1 -0 0 1 0 1 1 1 1 0 0 -0 0 -0 -0 -0 -1 -1 -1 -1 -1 -1 -1 -2 -2 -2 -3
5 5 5 4 4 4 4 3 2 1 -0 -0 -0 -0 -1 -1 -1 -0 1 1 0 0 0 0 -0 -0 -0 -0 -0 -0 -1 -1 -1 -1 -2 -2 -2 -1 -2 -2 -3 -3 -3
4 4 4 4 4 3 3 2 2 -0 -0 -0 -0 -0 -1 -1 -0 -0 0 -0 0 0 0 0 -0 -0 -0 -0 -0 -1 -1 -1 -1 -2 -2 -2 -2 -2 -2 -2 -3 -3 -3
4 4 4 4 3 3 3 2 1 -1 -1 -0 -0 -1 -1 -1 -0 0 0 -0 0 0 0 -0 -0 -0 -0 -0 -0 -1 -1 -1 -1 -2 -2 -3 -2 -2 -3 -3 -3 -3 -3
4 4 3 3 3 3 2 1 0 -1 -1 -0 -0 -1 -1 -0 1 -0 -0 -0 -0 -0 -1 -1 -0 -0 -0 -0 -1 -1 -1 -1 -2 -2 -2 -3 -3 -3 -3 -3 -3 -4 -3
5 4 3 3 2 2 1 1 0 -1 -1 -1 -1 -2 -1 -0 -1 -0 -0 -0 -0 -1 -0 0 0 -0 -0 -1 -1 -1 -2 -2 -2 -2 -3 -3 -3 -4 -4 -4 -4 -4 -4
3 3 3 3 2 2 1 1 0 -0 -1 -1 -2 -1 -0 -0 -0 -0 -1 -1 -1 -1 -1 -0 -0 -1 -1 -1 -1 -1 -2 -2 -2 -2 -3 -3 -4 -4 -4 -4 -5 -5 -5
2 3 3 3 2 1 1 1 -0 -0 -1 -1 -1 -1 0 -1 -1 -1 -1 -2 -1 -1 0 0 0 -0 -1 -2 -2 -2 -2 -2 -2 -3 -3 -4 -4 -4 -4 -5 -5 -6 -6
2 2 2 2 2 1 1 0 0 -1 -1 -0 -1 -1 -0 -0 -1 -1 -1 -1 -1 -0 -0 -0 0 -0 -1 -2 -3 -3 -3 -3 -3 -3 -3 -4 -4 -5 -5 -5 -6 -6 -6
1 1 1 1 1 1 1 0 0 -0 -1 -1 -0 -0 -1 -1 -1 -0 -0 -1 -1 -0 -0 -0 -1 -1 -2 -3 -4 -4 -4 -3 -4 -4 -4 -4 -4 -5 -5 -6 -7 -6 -7
0 0 -0 0 0 1 1 1 0 -0 -0 -0 -0 -0 -1 -1 -0 -0 -1 -1 -1 -2 -2 -2 -3 -4 -4 -5 -5 -5 -5 -5 -6 -6 -6 -6 -6 -6 -6 -6 -7 -7 -7
-1 -1 -1 -1 -1 -0 0 1 0 -0 -0 -0 -0 -0 -1 -1 -1 -1 -1 -1 -1 -2 -2 -3 -3 -4 -4 -5 -5 -6 -6 -6 -6 -6 -6 -7 -6 -6 -7 -7 -7 -7 -7
-2 -2 -2 -1 -1 -1 -1 -0 -0 -0 -0 -0 -0 -0 -1 -1 -1 -1 -1 -1 -1 -1 -2 -2 -2 -3 -3 -5 -6 -6 -6 -6 -7 -7 -7 -7 -7 -7 -7 -8 -8 -8 -8
-3 -2 -2 -2 -2 -1 -1 -1 -1 -1 -1 -1 -1 -1 -1 -1 -1 -1 -1 -1 -1 -1 -2 -3 -3 -4 -4 -5 -5 -5 -6 -7 -7 -8 -8 -7 -7 -8 -8 -8 -8 -8 -8
-3 -3 -3 -2 -2 -2 -2 -2 -1 -1 -1 -1 -1 -1 -1 -1 -1 -1 -2 -2 -2 -2 -3 -3 -4 -4 -5 -5 -5 -6 -6 -7 -7 -7 -7 -7 -7 -8 -8 -8 -8 -9 -9
-4 -3 -3 -3 -3 -2 -2 -2 -2 -2 -2 -2 -2 -2 -2 -2 -2 -3 -2 -3 -3 -4 -4 -4 -4 -5 -5 -5 -6 -6 -7 -7 -7 -7 -7 -6 -7 -7 -8 -8 -8 -9 -9
Height
1494 1496 1499 1498 1501 1504 1507 1509 1508 1505 1509 1510 1509 1508 1508 1508 1507 1507 1507 1506 1504 1504 1503 1503 1503 1503 1505 1506 1506 1507 1508 1509 1510 1509 1509 1509 1509 1508 1508 1509 1508 1508 1507
1489 1492 1495 1496 1498 1499 1501 1503 1504 1503 1503 1503 1503 1503 1503 1503 1501 1501 1502 1501 1500 1499 1498 1498 1499 1498 1499 1500 1500 1501 1502 1504 1505 1505 1505 1505 1505 1505 1503 1503 1502 1504 1503
1486 1487 1490 1492 1494 1496 1497 1499 1500 1500 1499 1498 1498 1497 1497 1497 1496 1496 1496 1496 1496 1496 1495 1494 1495 1494 1494 1494 1495 1496 1495 1498 1498 1499 1500 1501 1500 1501 1500 1497 1497 1500 1500
1482 1484 1486 1489 1490 1492 1493 1493 1494 1495 1493 1494 1492 1492 1491 1490 1491 1491 1492 1491 1491 1491 1492 1491 1491 1491 1491 1490 1491 1492 1492 1494 1494 1494 1496 1496 1496 1498 1497 1496 1494 1496 1497
1479 1481 1483 1485 1487 1488 1488 1489 1489 1489 1489 1487 1487 1487 1485 1486 1485 1487 1487 1487 1486 1486 1487 1487 1489 1488 1487 1486 1487 1488 1488 1488 1490 1490 1492 1492 1491 1494 1494 1493 1492 1492 1494
1475 1477 1480 1482 1483 1483 1484 1484 1484 1484 1482 1483 1482 1481 1480 1480 1480 1480 1482 1481 1481 1482 1482 1484 1484 1485 1483 1483 1484 1484 1484 1486 1486 1486 1490 1490 1487 1489 1492 1491 1489 1489 1491
1472 1474 1475 1477 1477 1478 1479 1479 1479 1478 1478 1478 1477 1476 1475 1475 1475 1474 1476 1477 1478 1478 1479 1480 1482 1483 1483 1482 1482 1482 1482 1484 1484 1486 1485 1488 1484 1485 1490 1488 1487 1487 1487
1468 1470 1471 1472 1473 1474 1475 1475 1474 1474 1473 1473 1472 1472 1472 1472 1471 1471 1472 1474 1475 1476 1477 1477 1480 1481 1480 1482 1480 1480 1481 1481 1482 1483 1482 1483 1481 1482 1485 1484 1484 1484 1484
1462 1464 1466 1467 1468 1469 1469 1469 1469 1468 1468 1467 1468 1468 1468 1468 1468 1469 1469 1470 1472 1474 1475 1476 1477 1478 1479 1480 1479 1478 1478 1478 1480 1478 1479 1480 1479 1479 1481 1480 1481 1481 1481
1456 1459 1461 1463 1464 1464 1464 1464 1464 1463 1463 1463 1464 1464 1465 1465 1466 1466 1468 1469 1472 1473 1473 1474 1476 1477 1477 1477 1477 1475 1476 1477 1477 1476 1476 1476 1477 1477 1477 1477 1478 1479 1480
1453 1454 1455 1457 1458 1459 1459 1459 1459 1458 1458 1459 1460 1461 1461 1462 1463 1464 1466 1468 1470 1471 1471 1472 1473 1474 1474 1474 1474 1473 1473 1474 1474 1474 1473 1474 1475 1474 1474 1475 1476 1477 1477
1448 1449 1450 1452 1453 1454 1455 1454 1454 1454 1455 1455 1456 1457 1458 1459 1460 1462 1464 1465 1467 1468 1469 1471 1471 1472 1472 1472 1471 1470 1471 1471 1471 1471 1471 1472 1472 1472 1472 1473 1473 1474 1474
1442 1443 1445 1446 1447 1449 1449 1449 1449 1449 1450 1451 1452 1453 1454 1456 1458 1460 1462 1463 1464 1466 1467 1468 1469 1470 1469 1469 1469 1469 1468 1468 1468 1468 1469 1470 1470 1469 1470 1470 1471 1471 1471
1438 1440 1441 1442 1442 1443 1443 1444 1444 1445 1445 1446 1447 1448 1450 1451 1453 1456 1458 1459 1461 1463 1464 1465 1466 1466 1466 1466 1466 1466 1466 1465 1465 1466 1467 1467 1466 1466 1467 1467 1467 1467 1467
1435 1436 1437 1438 1438 1438 1438 1439 1440 1441 1442 1442 1443 1444 1445 1447 1450 1453 1454 1456 1458 1460 1460 1461 1462 1462 1462 1463 1463 1463 1463 1462 1463 1463 1463 1464 1463 1463 1464 1463 1463 1463 1463
1431 1432 1433 1433 1432 1433 1433 1434 1434 1435 1436 1437 1438 1439 1441 1444 1446 1448 1451 1452 1454 1456 1455 1456 1457 1458 1458 1458 1458 1459 1459 1460 1460 1460 1460 1460 1460 1460 1459 1459 1459 1459 1459
1426 1426 1427 1428 1428 1428 1428 1428 1428 1430 1431 1432 1433 1434 1437 1440 1442 1444 1446 1448 1449 1450 1449 1451 1452 1453 1454 1454 1454 1455 1456 1455 1456 1456 1456 1456 1456 1455 1455 1455 1454 1454 1453
1420 1420 1421 1422 1423 1423 1423 1424 1424 1424 1425 1427 1428 1430 1432 1434 1436 1439 1441 1442 1443 1443 1444 1446 1448 1449 1450 1450 1450 1451 1450 1451 1451 1451 1451 1451 1451 1450 1450 1450 1450 1449 1448
1414 1414 1415 1416 1416 1417 1418 1418 1418 1419 1420 1422 1424 1426 1428 1430 1432 1433 1435 1435 1437 1438 1439 1440 1443 1444 1444 1445 1445 1445 1446 1446 1445 1445 1445 1445 1445 1445 1445 1445 1445 1443 1442
1407 1408 1408 1409 1410 1410 1411 1412 1413 1414 1415 1417 1419 1421 1424 1424 1424 1426 1428 1429 1430 1432 1434 1435 1436 1438 1438 1438 1438 1438 1439 1439 1439 1440 1440 1439 1439 1439 1438 1438 1438 1437 1437
1399 1400 1402 1402 1402 1404 1404 1405 1407 1408 1409 1411 1412 1415 1418 1418 1420 1421 1422 1423 1424 1425 1426 1427 1428 1429 1429 1430 1430 1430 1431 1431 1431 1432 1432 1432 1432 1431 1431 1431 1431 1431 1430
1391 1392 1394 1394 1396 1397 1398 1399 1400 1401 1403 1404 1406 1408 1411 1412 1413 1414 1415 1416 1417 1418 1418 1419 1419 1420 1420 1420 1421 1421 1422 1422 1423 1424 1425 1425 1425 1425 1425 1424 1424 1424 1423
1383 1384 1386 1387 1388 1390 1391 1392 1393 1394 1396 1397 1399 1401 1402 1404 1405 1406 1407 1408 1409 1409 1410 1409 1409 1410 1411 1411 1412 1413 1414 1415 1416 1417 1417 1417 1417 1417 1418 1417 1417 1416 1416
1377 1378 1379 1380 1381 1382 1383 1385 1386 1388 1389 1391 1392 1394 1395 1397 1398 1399 1400 1401 1402 1402 1401 1401 1401 1401 1401 1402 1404 1405 1406 1407 1408 1409 1409 1410 1410 1411 1410 1410 1410 1409 1408
1372 1373 1373 1373 1374 1375 1377 1378 1380 1382 1383 1385 1387 1388 1390 1391 1392 1393 1394 1393 1393 1393 1393 1393 1393 1394 1394 1395 1396 1398 1399 1400 1401 1402 1403 1404 1404 1404 1404 1403 1403 1402 1400
1367 1368 1369 1369 1370 1371 1371 1373 1374 1376 1378 1380 1382 1383 1384 1385 1386 1386 1386 1386 1386 1386 1386 1386 1387 1387 1388 1389 1390 1392 1394 1395 1395 1397 1397 1397 1397 1397 1397 1396 1395 1394 1393
Wind_Speed
25 27 27 27 28 27 26 22 20 24 20 21 22 22 22 21 21 22 21 20 19 19 18 17 14 14 15 15 13 14 14 17 18 14 16 20 21 23 24 18 16 16 11
24 27 28 23 22 21 20 19 18 19 20 21 21 21 22 21 21 21 21 20 19 19 17 16 16 16 17 17 19 21 24 22 21 21 20 19 22 21 18 15 13 10 8
20 22 24 23 22 21 19 18 18 19 19 20 21 22 22 20 19 20 21 19 18 17 16 15 15 16 15 14 15 16 16 16 18 17 18 17 18 17 15 11 9 8 7
20 21 22 21 19 18 17 17 17 19 20 21 21 21 20 19 18 19 20 19 18 18 18 16 16 15 16 16 16 16 15 15 15 16 16 15 14 13 8 8 8 9 10
22 22 21 20 19 17 16 17 18 20 20 21 20 20 19 19 18 19 20 19 19 18 18 18 17 16 15 14 13 13 13 12 12 12 13 13 11 9 7 7 7 10 10
22 23 22 20 18 18 18 18 19 20 20 19 19 20 20 19 18 18 19 18 17 16 15 15 14 13 12 10 9 9 10 9 10 11 12 11 8 7 8 8 7 9 8
23 23 23 21 19 17 17 18 18 18 18 18 18 16 16 15 15 14 15 14 14 12 12 10 9 8 7 7 7 8 8 9 10 9 9 10 7 8 10 9 9 10 9
24 24 24 22 20 18 18 17 17 17 16 15 14 14 14 14 15 14 13 12 12 11 9 9 9 8 7 8 7 7 7 7 7 7 7 9 8 9 10 9 8 8 8
24 26 25 23 21 19 18 17 17 16 15 13 13 13 13 13 14 12 9 10 10 10 10 9 8 8 7 7 7 7 6 7 8 7 7 8 8 9 9 8 8 7 7
25 25 26 25 21 20 19 17 15 14 12 11 12 12 12 12 11 9 9 10 10 10 9 9 8 7 7 7 6 6 6 7 7 7 7 6 7 8 8 7 7 6 6
24 23 25 24 23 21 19 17 15 13 11 12 12 12 12 12 11 11 10 10 10 10 9 8 7 7 6 7 7 6 7 7 7 6 6 6 7 7 6 6 6 6 6
23 24 25 24 23 21 19 17 15 14 13 13 14 14 13 12 13 12 12 11 10 9 8 8 7 7 7 7 6 6 7 7 6 6 7 8 8 6 6 7 8 7 7
20 22 22 22 22 22 20 18 17 14 15 15 16 15 15 15 14 13 12 11 10 9 8 7 7 7 6 6 6 6 6 7 7 7 8 9 8 7 7 7 8 9 9
14 16 18 20 21 22 20 19 18 17 17 17 18 18 16 17 16 15 13 12 11 10 10 9 9 8 7 7 6 7 7 8 9 9 10 10 9 8 8 9 9 11 10
11 13 15 16 19 18 18 18 18 17 17 17 17 16 16 18 15 13 13 13 12 11 13 13 11 10 9 8 8 8 8 8 9 10 11 11 11 11 9 10 10 11 13
14 14 14 14 16 17 17 17 18 16 17 18 17 19 17 16 17 15 13 13 13 14 16 14 12 12 11 10 10 9 9 9 9 11 12 12 11 12 12 11 12 13 14
20 17 16 18 18 19 18 19 20 18 17 17 19 18 16 16 16 16 15 15 15 16 19 16 15 13 12 11 10 11 11 9 12 13 13 12 12 12 13 13 13 14 15
19 19 20 20 21 20 21 20 20 20 19 16 18 18 16 17 18 17 16 16 18 20 20 18 15 14 14 13 12 13 11 13 15 15 15 14 13 13 13 13 14 15 17
19 20 20 23 22 22 21 20 20 20 20 18 17 19 17 18 18 19 19 22 21 21 20 19 16 17 16 15 14 16 17 16 16 15 15 15 13 14 15 15 15 16 18
21 22 20 22 23 23 22 22 22 21 21 21 21 16 16 17 21 22 23 22 23 22 21 22 21 20 23 24 27 22 19 18 17 18 16 14 15 16 16 16 16 18 18
24 23 24 23 23 23 24 24 24 24 22 23 23 23 23 23 22 23 24 25 25 25 26 25 23 24 26 26 25 25 26 25 26 21 18 18 19 21 19 18 17 19 20
25 27 26 25 23 23 23 23 24 24 25 25 24 23 22 24 26 26 26 26 26 27 28 28 28 30 27 25 23 23 22 24 20 18 22 21 23 22 18 19 18 20 21
19 21 24 22 23 22 22 23 23 22 23 24 24 24 23 24 25 25 24 24 24 25 26 27 29 29 28 26 27 27 27 24 20 20 23 23 24 20 19 18 19 22 22
13 16 19 22 22 23 23 22 21 20 20 20 20 20 20 19 19 19 19 19 21 22 23 25 25 23 23 25 26 24 23 22 23 21 21 23 20 19 19 19 22 23 23
12 13 15 17 19 21 20 20 19 18 18 18 17 17 16 16 16 17 18 19 20 21 21 20 18 18 18 20 20 19 20 21 20 20 20 18 19 18 20 22 23 25 25
12 13 11 13 14 14 15 15 14 15 15 15 14 15 15 16 16 15 16 18 18 18 17 15 14 13 14 14 13 14 15 16 14 16 17 18 18 20 22 24 25 24 24
Wind_Direction
234 230 229 226 228 229 225 240 243 249 256 263 269 272 275 275 277 278 276 274 272 269 265 263 253 247 248 249 247 243 237 240 244 257 254 260 266 264 275 281 284 291 290
234 232 236 234 229 234 239 239 246 252 257 268 272 274 274 273 274 274 272 271 270 267 261 255 247 245 245 247 247 246 247 248 251 255 249 252 261 268 271 276 285 280 279
233 232 232 231 229 230 234 246 259 267 272 272 272 272 273 275 272 270 267 267 266 266 264 259 256 251 250 249 254 253 250 245 245 249 248 250 262 267 265 266 259 256 268
235 230 226 223 225 232 241 250 261 268 272 273 275 275 274 272 269 265 263 260 260 258 257 258 254 252 250 249 251 253 252 249 244 245 247 250 256 267 251 243 247 259 267
234 229 226 226 231 241 252 262 271 274 276 280 279 275 273 270 265 261 258 257 256 255 253 251 250 250 252 253 252 250 245 245 246 246 248 246 254 260 256 249 248 265 271
227 226 228 230 237 247 258 267 272 275 276 274 272 271 271 269 264 257 258 253 252 250 248 246 243 246 246 244 238 238 240 247 248 243 245 255 249 259 270 265 270 275 277
230 228 230 233 241 250 260 267 273 272 270 270 273 273 272 272 272 262 254 244 241 240 236 231 231 228 237 241 245 247 249 248 250 251 250 255 260 275 274 283 282 274 272
239 234 233 236 242 249 260 270 273 265 267 268 266 264 266 269 275 267 248 233 230 229 221 211 223 234 241 240 238 241 247 253 255 250 250 259 266 267 269 277 273 274 275
246 241 239 239 243 253 264 271 271 267 269 269 259 259 258 263 270 252 229 211 206 203 209 216 223 236 242 247 244 250 255 257 259 263 263 265 269 270 269 269 271 271 263
252 247 243 242 246 253 262 271 263 266 266 255 248 248 250 260 254 222 202 197 204 209 214 227 235 242 249 260 261 265 262 258 253 261 262 263 262 265 272 268 265 261 253
249 248 244 244 248 254 262 264 262 264 261 244 242 245 250 250 224 212 205 208 213 220 225 234 251 261 267 272 273 262 258 260 264 264 262 260 256 259 265 261 254 250 253
251 250 244 243 248 254 260 254 250 247 238 237 235 239 242 229 215 212 216 218 225 229 234 238 243 255 266 272 268 264 263 265 259 258 261 262 261 257 249 252 256 260 267
251 243 242 244 249 254 253 247 243 242 235 237 236 237 233 222 216 218 223 219 227 233 241 250 257 262 271 273 264 262 265 267 269 268 268 266 267 267 261 255 259 265 271
252 248 246 249 255 260 252 243 243 244 237 236 235 235 232 219 217 219 220 223 229 237 244 249 257 264 269 266 264 272 275 273 274 274 273 273 273 269 270 270 266 269 272
252 252 255 262 266 261 254 250 251 250 247 244 242 240 232 220 217 223 227 232 238 242 244 250 258 264 268 271 268 269 271 276 279 278 277 275 273 273 270 273 276 275 280
258 258 257 262 267 260 255 252 255 249 237 239 237 236 227 222 217 223 229 233 237 242 250 253 257 260 266 270 270 269 272 278 276 272 272 272 269 268 271 271 275 279 282
257 259 263 266 266 264 260 259 257 248 237 238 244 244 229 227 222 226 229 231 235 241 249 254 256 260 266 268 272 273 276 287 284 277 273 269 266 267 272 277 278 281 285
261 265 262 263 263 265 263 261 258 248 245 249 249 240 232 223 227 228 234 241 243 249 257 262 265 267 266 269 271 274 284 279 278 278 274 270 268 271 273 278 278 281 282
264 262 264 261 261 262 262 259 258 252 246 244 250 244 237 236 236 239 243 248 252 256 261 263 271 269 265 263 262 270 274 272 271 275 273 268 268 272 276 280 281 282 283
264 271 269 260 257 257 259 256 254 253 249 244 244 239 242 239 238 242 249 255 259 261 261 265 267 265 265 265 271 268 260 264 262 267 272 266 269 268 273 276 281 285 285
258 260 264 261 254 253 254 255 256 254 256 251 251 245 242 250 252 253 260 264 267 269 270 273 275 267 268 266 258 265 267 260 263 264 256 263 259 264 274 279 283 287 290
256 255 256 258 259 254 252 255 256 255 255 255 256 256 253 253 256 258 261 263 265 267 269 269 268 266 269 265 268 268 269 262 259 256 262 259 262 264 275 279 284 288 290
260 251 250 254 254 254 250 251 254 255 256 256 256 257 255 254 258 262 265 268 270 273 274 274 272 272 272 260 261 261 266 267 259 252 262 269 265 269 277 278 284 285 286
268 256 250 250 250 252 251 250 251 252 254 255 255 254 256 256 259 262 263 265 267 270 270 269 271 270 265 261 264 262 268 261 251 254 262 264 268 270 274 282 282 284 287
280 270 259 253 249 248 248 249 250 250 250 250 252 253 255 258 262 265 267 272 275 273 270 268 267 263 261 262 259 262 265 263 262 263 267 267 266 274 277 280 283 287 288
272 274 271 257 249 242 240 240 241 242 243 245 247 249 253 254 257 267 274 273 271 268 266 264 261 258 258 253 253 261 266 263 257 263 264 266 273 277 280 284 285 285 285